Notices

What's New in latest Release from April 7th, 2021:

- Updated Glossary, including Speed of Maximum Gust, and Total Hourly Precipitation

- Updated national and regional climate services offices contacts and prices information

- Addition of station inventory lists for 1981-2010, 1971-2000, and 1961-1990 Normals.

If you haven't already, please take our survey and provide feedback about our website: https://eccc.sondage-survey.ca/f/LanguageSelection.aspx?s=442ca660-fcf1-47c0-95a9-59707d6fd709

Hourly Data Report for June 06, 2015

KELOWNA UBCO
BRITISH COLUMBIA

49°56'26.700" N
119°24'00.760" W
456.00 m
1123996
71644
VKU

Download Data

Hourly Data (June 2015)
Hourly Data Report for June 6, 2015
TIME
LST
Temp Definition
°C
Dew Point Definition
°C
Rel Hum Definition
%
Precip. Amount Definition
mm

Wind Dir Definition
10's deg

Wind Spd Definition
km/h
Visibility Definition
km
Stn Press Definition
kPa
Hmdx Definition


Wind Chill Definition


Weather Definition


00:00 15.9 10.2 69 0.0       96.25     LegendNANA
01:00 13.1 10.3 83 0.0       96.27     LegendNANA
02:00 12.6 9.8 83 0.0       96.26     LegendNANA
03:00 13.0 9.8 81 0.0       96.32     LegendNANA
04:00 12.5 9.8 83 0.0       96.33     LegendNANA
05:00 12.4 10.1 86 0.0       96.38     LegendNANA
06:00 15.8 10.8 72 0.0       96.42     LegendNANA
07:00 18.1 12.5 70 0.0       96.42     LegendNANA
08:00 20.2 12.2 60 0.0       96.40     LegendNANA
09:00 21.9 11.9 53 0.0       96.33     LegendNANA
10:00 23.7 10.3 43 0.0       96.29 25   LegendNANA
11:00 25.4 11.2 41 0.0       96.25 27   LegendNANA
12:00 27.0 10.4 36 0.0       96.20 28   LegendNANA
13:00 27.1 8.4 31 0.0       96.17 28   LegendNANA
14:00 28.4 8.4 28 0.0       96.11 29   LegendNANA
15:00 29.4 8.2 27 0.0       96.06 30   LegendNANA
16:00 29.2 9.7 30 0.0       96.01 30   LegendNANA
17:00 29.3 11.3 33 0.0       95.98 31   LegendNANA
18:00 28.1 11.0 34 0.0       95.95 30   LegendNANA
19:00 26.2 9.1 34 0.0       95.97 27   LegendNANA
20:00 24.0 10.7 43 0.0       95.99 26   LegendNANA
21:00 21.0 12.8 60 0.0       96.03     LegendNANA
22:00 19.8 12.2 62 0.0       96.07     LegendNANA
23:00 17.7 12.1 70 0.0       96.10     LegendNANA

Notes on Data Quality.

Legend

  • E = Estimated
  • M = Missing
  • NA = Not Available*
  • [empty] = Indicates an unobserved value
Date modified: